FW2905 Weather Reports


Display with metric or nautical units.
time (UTC)temp
F
wind
direction
speed
MPH
gust
MPH
rain 1hr
in
rain 24hr
in
rain mn
in
humidity
%
barometer
mb
20260508105015 36 225 0.0 2.0 0.00 0.00 0.00 80 1010.8
20260508104528 36 225 1.0 2.0 0.00 0.00 0.00 80 1010.7
20260508104016 36 0 0.0 2.0 0.00 0.00 0.00 80 1010.7
20260508103516 36 213 1.0 3.0 0.00 0.00 0.00 80 1010.7
20260508103035 36 209 2.0 3.0 0.00 0.00 0.00 80 1010.7
20260508102516 36 233 1.0 3.0 0.00 0.00 0.00 80 1010.7
20260508102016 36 227 1.0 3.0 0.00 0.00 0.00 80 1010.7
20260508101537 36 229 2.0 3.0 0.00 0.00 0.00 79 1010.6
20260508101015 36 221 2.0 3.0 0.00 0.00 0.00 79 1010.7
20260508100516 36 238 1.0 3.0 0.00 0.00 0.00 79 1010.6
20260508100034 36 254 1.0 3.0 0.00 0.00 0.00 79 1010.7
20260508095516 36 238 2.0 3.0 0.00 0.00 0.00 79 1010.8
20260508095018 36 257 1.0 3.0 0.00 0.00 0.00 79 1010.8
20260508094534 36 256 2.0 3.0 0.00 0.00 0.00 79 1010.9
20260508094019 36 241 1.0 3.0 0.00 0.00 0.00 79 1010.8
20260508093517 36 236 1.0 3.0 0.00 0.00 0.00 79 1010.8
20260508093032 36 231 1.0 3.0 0.00 0.00 0.00 79 1010.9
20260508092516 36 249 1.0 3.0 0.00 0.00 0.00 78 1010.9
20260508092016 36 243 1.0 3.0 0.00 0.00 0.00 78 1011.0
20260508091549 36 249 1.0 3.0 0.00 0.00 0.00 78 1011.0
20260508091016 36 230 2.0 3.0 0.00 0.00 0.00 78 1011.0
20260508090516 36 248 1.0 2.0 0.00 0.00 0.00 77 1011.1
20260508090036 36 248 1.0 2.0 0.00 0.00 0.00 78 1011.0
20260508085515 36 249 0.0 2.0 0.00 0.00 0.00 77 1011.1
20260508085016 36 249 1.0 2.0 0.00 0.00 0.00 77 1011.1
20260508084535 36 250 1.0 2.0 0.00 0.00 0.00 76 1011.1
20260508084021 35 247 1.0 2.0 0.00 0.00 0.00 76 1011.2
20260508083516 36 222 0.0 3.0 0.00 0.00 0.00 76 1011.1
20260508083038 36 222 0.0 3.0 0.00 0.00 0.00 75 1011.2
20260508082516 36 242 1.0 2.0 0.00 0.00 0.00 75 1011.2
20260508082016 36 245 1.0 2.0 0.00 0.00 0.00 75 1011.3
20260508081535 36 246 0.0 2.0 0.00 0.00 0.00 74 1011.2
20260508081016 36 246 0.0 2.0 0.00 0.00 0.00 74 1011.3
20260508080516 36 246 1.0 2.0 0.00 0.00 0.00 74 1011.2
20260508080038 36 263 1.0 1.0 0.00 0.00 0.00 74 1011.3
20260508075516 36 263 1.0 2.0 0.00 0.00 0.00 74 1011.3
20260508075021 36 261 0.0 2.0 0.00 0.00 0.00 75 1011.4
20260508074531 35 265 0.0 2.0 0.00 0.00 0.00 75 1011.4
20260508074016 35 265 0.0 2.0 0.00 0.00 0.00 75 1011.5
20260508073516 35 265 0.0 2.0 0.00 0.00 0.00 75 1011.5
20260508073034 35 265 1.0 2.0 0.00 0.00 0.00 76 1011.6
20260508072519 35 0 0.0 1.0 0.00 0.00 0.00 75 1011.6
20260508072016 35 265 1.0 1.0 0.00 0.00 0.00 74 1011.7
20260508071535 35 261 1.0 2.0 0.00 0.00 0.00 74 1011.7
20260508071021 36 271 0.0 2.0 0.00 0.00 0.00 73 1011.6
20260508070520 36 271 0.0 2.0 0.00 0.00 0.00 75 1011.7
20260508070031 35 280 1.0 3.0 0.00 0.00 0.00 75 1011.8
20260508065516 35 286 2.0 3.0 0.00 0.00 0.00 76 1011.8
20260508065017 36 235 0.0 2.0 0.00 0.00 0.00 74 1011.9
20260508064535 36 235 0.0 2.0 0.00 0.00 0.00 74 1012.0
20260508064016 36 272 1.0 5.0 0.00 0.00 0.00 74 1012.1
20260508063521 35 272 1.0 5.0 0.00 0.00 0.00 76 1011.9
20260508063055 35 300 2.0 5.0 0.00 0.00 0.00 75 1012.1
20260508062521 36 0 0.0 6.0 0.00 0.00 0.00 75 1012.1
20260508062016 35 292 1.0 6.0 0.00 0.00 0.00 77 1012.1
20260508061532 35 295 1.0 3.0 0.00 0.00 0.00 75 1012.2
20260508061016 36 185 1.0 3.0 0.00 0.00 0.00 75 1012.2
20260508060518 35 300 2.0 3.0 0.00 0.00 0.00 75 1012.3
20260508060030 36 210 1.0 3.0 0.00 0.00 0.00 76 1012.2
20260508055515 35 275 2.0 3.0 0.00 0.00 0.00 77 1012.4
20260508055015 36 205 1.0 2.0 0.00 0.00 0.00 77 1012.3
20260508054531 35 275 2.0 2.0 0.00 0.00 0.00 79 1012.4
20260508054016 35 250 1.0 2.0 0.00 0.00 0.00 79 1012.4
20260508053515 34 267 1.0 1.0 0.00 0.00 0.00 79 1012.5
20260508053043 35 262 1.0 1.0 0.00 0.00 0.00 79 1012.4
20260508052516 35 263 1.0 2.0 0.00 0.00 0.00 79 1012.4
20260508052020 35 263 1.0 2.0 0.00 0.00 0.00 79 1012.4
20260508051550 35 263 0.0 2.0 0.00 0.00 0.00 79 1012.4
20260508051016 35 263 1.0 2.0 0.00 0.00 0.00 79 1012.4
20260508050516 35 263 1.0 2.0 0.00 0.00 0.00 79 1012.3
20260508050031 35 263 0.0 1.0 0.00 0.00 0.00 79 1012.4
20260508045515 35 263 1.0 1.0 0.00 0.00 0.00 79 1012.3
20260508045017 35 263 1.0 2.0 0.00 0.00 0.00 78 1012.2
20260508044532 36 263 1.0 2.0 0.00 0.00 0.00 78 1012.2
20260508044016 36 257 1.0 2.0 0.00 0.00 0.00 77 1012.3
20260508043518 36 257 1.0 2.0 0.00 0.00 0.00 74 1012.3
20260508043031 36 0 0.0 2.0 0.00 0.00 0.00 72 1012.3
20260508042515 37 257 0.0 2.0 0.00 0.00 0.00 72 1012.3
20260508042019 37 257 0.0 2.0 0.00 0.00 0.00 72 1012.4
20260508041532 37 257 1.0 2.0 0.00 0.00 0.00 71 1012.3
20260508041015 37 257 0.0 2.0 0.00 0.00 0.00 71 1012.4
20260508040515 38 0 0.0 2.0 0.00 0.00 0.00 71 1012.4
20260508040034 37 257 1.0 2.0 0.00 0.00 0.00 72 1012.4
20260508035516 37 275 0.0 2.0 0.00 0.00 0.00 74 1012.2
20260508035018 36 275 1.0 2.0 0.00 0.00 0.00 75 1012.3
20260508034532 36 0 0.0 2.0 0.00 0.00 0.00 75 1012.2
20260508034016 36 0 0.0 2.0 0.00 0.00 0.00 75 1012.2
20260508033515 36 40 0.0 1.0 0.00 0.00 0.00 75 1012.2
20260508033034 36 40 0.0 2.0 0.00 0.00 0.00 74 1012.1
20260508032516 36 0 0.0 2.0 0.00 0.00 0.00 73 1012.2
20260508032016 37 0 0.0 2.0 0.00 0.00 0.00 73 1012.2
20260508031530 37 0 0.0 2.0 0.00 0.00 0.00 72 1012.2
20260508031016 37 0 0.0 2.0 0.00 0.00 0.00 71 1012.3
20260508030516 37 0 0.0 2.0 0.00 0.00 0.00 71 1012.3
20260508030036 37 38 1.0 2.0 0.00 0.00 0.00 70 1012.3
20260508025517 38 143 0.0 2.0 0.00 0.00 0.00 69 1012.1
20260508025016 39 0 0.0 2.0 0.00 0.00 0.00 69 1012.0
20260508024532 39 143 0.0 2.0 0.00 0.00 0.00 68 1011.9
20260508024016 39 143 0.0 2.0 0.00 0.00 0.00 69 1011.9
20260508023516 38 143 0.0 2.0 0.00 0.00 0.00 69 1011.8
20260508023034 39 144 0.0 2.0 0.00 0.00 0.00 68 1011.8
20260508022515 39 0 0.0 2.0 0.00 0.00 0.00 68 1011.7
20260508022016 39 144 1.0 2.0 0.00 0.00 0.00 67 1011.7
20260508021537 39 145 1.0 2.0 0.00 0.00 0.00 67 1011.7
20260508021018 39 147 1.0 3.0 0.00 0.00 0.00 66 1011.7
20260508020515 40 147 2.0 3.0 0.00 0.00 0.00 66 1011.6
20260508020030 40 142 2.0 4.0 0.00 0.00 0.00 65 1011.6
20260508015516 40 140 1.0 4.0 0.00 0.00 0.00 64 1011.6
20260508015015 40 136 1.0 3.0 0.00 0.00 0.00 64 1011.5
20260508014529 40 146 1.0 4.0 0.00 0.00 0.00 63 1011.5
20260508014015 40 140 1.0 4.0 0.00 0.00 0.00 63 1011.4
20260508013516 40 146 2.0 4.0 0.00 0.00 0.00 63 1011.3
20260508013030 40 137 0.0 3.0 0.00 0.00 0.00 62 1011.3
20260508012516 41 146 1.0 3.0 0.00 0.00 0.00 61 1011.3
20260508012016 41 126 2.0 3.0 0.00 0.00 0.00 61 1011.3
20260508011536 41 130 1.0 5.0 0.00 0.00 0.00 61 1011.2
20260508011015 41 147 2.0 5.0 0.00 0.00 0.00 60 1011.2
20260508010517 42 143 2.0 9.0 0.00 0.00 0.00 60 1011.1
20260508010041 42 144 3.0 9.0 0.00 0.00 0.00 59 1011.1
20260508005515 42 157 4.0 8.0 0.00 0.00 0.00 59 1011.0
20260508005016 42 151 3.0 7.0 0.00 0.00 0.00 59 1011.0
20260508004550 42 151 4.0 7.0 0.00 0.00 0.00 59 1011.0
20260508004016 42 139 1.0 4.0 0.00 0.00 0.00 59 1011.0
20260508003516 43 109 1.0 4.0 0.00 0.00 0.00 57 1011.0
20260508003028 44 102 2.0 9.0 0.00 0.00 0.00 56 1010.9
20260508002517 44 0 0.0 10.0 0.00 0.00 0.00 55 1010.9
20260508002016 44 148 6.0 10.0 0.00 0.00 0.00 54 1010.8
20260508001532 44 175 5.0 10.0 0.00 0.00 0.00 55 1010.8
20260508001016 44 160 4.0 9.0 0.00 0.00 0.00 56 1010.7
20260508000516 45 178 4.0 13.0 0.00 0.00 0.00 55 1010.7
20260508000038 45 165 7.0 13.0 0.00 0.00 0.00 54 1010.6
20260507235519 45 141 8.0 11.0 0.00 0.00 0.00 54 1010.6
20260507235015 45 130 5.0 12.0 0.00 0.00 0.00 54 1010.7
20260507234530 45 161 5.0 15.0 0.00 0.00 0.00 54 1010.6
20260507234018 45 159 7.0 15.0 0.00 0.00 0.00 53 1010.6
20260507233517 46 153 9.0 15.0 0.00 0.00 0.00 53 1010.6
20260507233036 46 148 6.0 13.0 0.00 0.00 0.00 53 1010.7
20260507232516 46 165 7.0 14.0 0.00 0.00 0.00 53 1010.7
20260507232020 46 143 8.0 14.0 0.00 0.00 0.00 54 1010.6
20260507231531 47 171 7.0 14.0 0.00 0.00 0.00 54 1010.7
20260507231016 47 170 6.0 12.0 0.00 0.00 0.00 54 1010.7
20260507230516 47 146 6.0 14.0 0.00 0.00 0.00 55 1010.7
20260507230047 47 113 7.0 14.0 0.00 0.00 0.00 55 1010.7
20260507225517 47 159 9.0 14.0 0.00 0.00 0.00 54 1010.8
20260507225016 47 159 8.0 14.0 0.00 0.00 0.00 55 1010.8
20260507224533 47 148 7.0 13.0 0.00 0.00 0.00 55 1010.9
20260507224018 47 162 7.0 14.0 0.00 0.00 0.00 57 1011.0
20260507223523 47 175 8.0 14.0 0.00 0.00 0.00 56 1011.0
20260507223106 47 149 8.0 15.0 0.00 0.00 0.00 57 1011.0
20260507222516 47 154 9.0 15.0 0.00 0.00 0.00 56 1011.0
20260507222016 48 153 6.0 17.0 0.00 0.00 0.00 55 1011.0
20260507221532 48 161 5.0 18.0 0.00 0.00 0.00 55 1011.0
20260507221016 47 167 10.0 18.0 0.00 0.00 0.00 56 1011.0
20260507220515 47 163 8.0 15.0 0.00 0.00 0.00 58 1011.0
20260507220032 48 141 8.0 15.0 0.00 0.00 0.00 58 1011.0
20260507215517 48 133 7.0 15.0 0.00 0.00 0.00 58 1011.0
20260507215015 48 167 7.0 15.0 0.00 0.00 0.00 57 1010.9
20260507214530 49 134 6.0 15.0 0.00 0.00 0.00 56 1010.9
20260507214019 48 107 9.0 17.0 0.00 0.00 0.00 56 1011.0
20260507213516 48 168 10.0 17.0 0.00 0.00 0.00 55 1011.0
20260507213030 49 135 7.0 16.0 0.00 0.00 0.00 56 1011.0
20260507212515 48 162 8.0 16.0 0.00 0.00 0.00 55 1011.0
20260507212017 49 174 7.0 17.0 0.00 0.00 0.00 54 1011.1
20260507211531 48 171 9.0 19.0 0.00 0.00 0.00 54 1011.0
20260507211015 47 153 11.0 19.0 0.00 0.00 0.00 52 1011.2
20260507210518 48 159 9.0 19.0 0.00 0.00 0.00 53 1011.3
20260507210036 48 148 10.0 19.0 0.00 0.00 0.00 53 1011.3
20260507205515 48 163 7.0 15.0 0.00 0.00 0.00 53 1011.3
20260507205015 47 160 8.0 15.0 0.00 0.00 0.00 53 1011.6
20260507204534 47 169 8.0 14.0 0.00 0.00 0.00 51 1011.4
20260507204015 47 154 5.0 10.0 0.00 0.00 0.00 51 1011.4
20260507203515 47 148 4.0 14.0 0.00 0.00 0.00 50 1011.3
20260507203036 47 175 5.0 14.0 0.00 0.00 0.00 50 1011.2
20260507202515 47 121 4.0 13.0 0.00 0.00 0.00 50 1011.2
20260507202018 46 138 7.0 18.0 0.00 0.00 0.00 50 1011.3
20260507201534 46 143 9.0 18.0 0.00 0.00 0.00 51 1011.5
20260507201020 46 129 7.0 19.0 0.00 0.00 0.00 51 1011.6
20260507200516 46 113 10.0 19.0 0.00 0.00 0.00 52 1011.5
20260507200048 47 140 7.0 16.0 0.00 0.00 0.00 54 1011.6
20260507195515 47 147 7.0 16.0 0.00 0.00 0.00 54 1011.7
20260507195015 47 146 9.0 17.0 0.00 0.00 0.00 53 1011.7
20260507194532 47 157 10.0 18.0 0.00 0.00 0.00 52 1011.7
20260507194016 48 125 9.0 18.0 0.00 0.00 0.00 51 1011.6
20260507193516 48 142 9.0 18.0 0.00 0.00 0.00 52 1011.6
20260507193043 47 193 7.0 16.0 0.00 0.00 0.00 51 1011.6
20260507192515 46 161 8.0 16.0 0.00 0.00 0.00 51 1011.7
20260507192016 47 179 7.0 14.0 0.00 0.00 0.00 51 1011.8
20260507191530 48 161 5.0 13.0 0.00 0.00 0.00 51 1011.7
20260507191015 48 165 4.0 12.0 0.00 0.00 0.00 51 1011.7
20260507190516 49 157 5.0 12.0 0.00 0.00 0.00 49 1011.5
20260507190036 52 150 4.0 12.0 0.00 0.00 0.00 42 1011.5
20260507185515 53 255 3.0 8.0 0.00 0.00 0.00 43 1011.4
20260507185015 52 271 3.0 7.0 0.00 0.00 0.00 42 1011.5
20260507184530 52 266 2.0 7.0 0.00 0.00 0.00 43 1011.6
20260507184017 52 234 3.0 11.0 0.00 0.00 0.00 43 1011.6
20260507183517 52 216 3.0 11.0 0.00 0.00 0.00 42 1011.8
20260507183037 53 259 3.0 9.0 0.00 0.00 0.00 43 1011.8
20260507182516 52 187 4.0 10.0 0.00 0.00 0.00 44 1011.9
20260507182016 51 265 5.0 10.0 0.00 0.00 0.00 44 1011.9
20260507181536 52 202 2.0 9.0 0.00 0.00 0.00 43 1012.0
20260507181019 51 281 4.0 9.0 0.00 0.00 0.00 46 1012.0
20260507180521 51 236 4.0 9.0 0.00 0.00 0.00 43 1012.1
20260507180030 51 246 5.0 12.0 0.00 0.00 0.00 44 1012.1
20260507175516 51 352 6.0 12.0 0.00 0.00 0.00 45 1012.2
20260507175016 51 345 5.0 10.0 0.00 0.00 0.00 44 1012.3
20260507174547 51 153 4.0 10.0 0.00 0.00 0.00 43 1012.3
20260507174017 51 249 4.0 10.0 0.00 0.00 0.00 45 1012.4
20260507173515 50 247 5.0 12.0 0.00 0.00 0.00 44 1012.5
20260507173037 50 236 6.0 14.0 0.00 0.00 0.00 45 1012.7
20260507172516 51 275 5.0 14.0 0.00 0.00 0.00 45 1012.7
20260507172016 50 318 7.0 14.0 0.00 0.00 0.00 44 1012.8
20260507171535 50 330 5.0 9.0 0.00 0.00 0.00 43 1012.8
20260507171015 52 30 3.0 10.0 0.00 0.00 0.00 42 1012.8
20260507170517 49 215 1.0 10.0 0.00 0.00 0.00 43 1012.9
20260507170035 50 360 5.0 10.0 0.00 0.00 0.00 45 1013.0
20260507165516 50 122 1.0 10.0 0.00 0.00 0.00 44 1013.1
20260507165016 48 0 3.0 10.0 0.00 0.00 0.00 46 1013.3
20260507164532 49 276 3.0 8.0 0.00 0.00 0.00 46 1013.2
20260507164016 49 0 1.0 10.0 0.00 0.00 0.00 46 1013.3
20260507163515 48 255 4.0 10.0 0.00 0.00 0.00 44 1013.3
20260507163036 49 0 1.0 9.0 0.00 0.00 0.00 45 1013.3
20260507162516 48 217 5.0 10.0 0.00 0.00 0.00 47 1013.4
20260507162018 48 306 5.0 15.0 0.00 0.00 0.00 45 1013.5
20260507161540 47 264 7.0 15.0 0.00 0.00 0.00 46 1013.5
20260507161015 47 229 8.0 15.0 0.00 0.00 0.00 48 1013.6
20260507160518 47 270 3.0 11.0 0.00 0.00 0.00 46 1013.7
20260507160039 48 294 7.0 13.0 0.00 0.00 0.00 48 1013.8
20260507155520 47 290 5.0 13.0 0.00 0.00 0.00 47 1013.8
20260507155019 47 312 8.0 13.0 0.00 0.00 0.00 47 1014.0
20260507154534 46 248 3.0 12.0 0.00 0.00 0.00 46 1013.9
20260507154016 46 284 8.0 12.0 0.00 0.00 0.00 48 1014.1
20260507153516 46 263 5.0 10.0 0.00 0.00 0.00 50 1014.1
20260507153037 45 255 6.0 10.0 0.00 0.00 0.00 48 1014.2
20260507152516 45 277 4.0 11.0 0.00 0.00 0.00 49 1014.2
20260507152016 45 334 5.0 12.0 0.00 0.00 0.00 49 1014.3
20260507151531 45 281 7.0 12.0 0.00 0.00 0.00 48 1014.3
20260507151015 45 311 6.0 12.0 0.00 0.00 0.00 47 1014.4
20260507150516 46 311 4.0 13.0 0.00 0.00 0.00 47 1014.3
20260507150030 46 277 6.0 13.0 0.00 0.00 0.00 47 1014.3
20260507145519 45 327 6.0 13.0 0.00 0.00 0.00 48 1014.4
20260507145015 45 313 5.0 13.0 0.00 0.00 0.00 48 1014.4
20260507144532 45 269 4.0 11.0 0.00 0.00 0.00 48 1014.4
20260507144016 45 259 5.0 14.0 0.00 0.00 0.00 49 1014.4
20260507143515 45 294 4.0 14.0 0.00 0.00 0.00 48 1014.4
20260507143030 45 318 8.0 13.0 0.00 0.00 0.00 46 1014.6
20260507142513 45 277 6.0 13.0 0.00 0.00 0.00 47 1014.7
20260507142013 45 238 6.0 13.0 0.00 0.00 0.00 49 1014.6
20260507141532 44 232 7.0 13.0 0.00 0.00 0.00 48 1014.7
20260507141017 45 267 6.0 16.0 0.00 0.00 0.00 49 1014.8
20260507140515 44 266 8.0 16.0 0.00 0.00 0.00 49 1014.9
20260507140034 44 221 7.0 15.0 0.00 0.00 0.00 48 1014.8
20260507135519 44 241 6.0 15.0 0.00 0.00 0.00 51 1015.0
20260507135015 44 253 9.0 14.0 0.00 0.00 0.00 50 1014.9
20260507134532 44 248 7.0 14.0 0.00 0.00 0.00 50 1014.9
20260507134015 44 273 8.0 14.0 0.00 0.00 0.00 50 1014.9
20260507133518 43 258 5.0 14.0 0.00 0.00 0.00 51 1015.0
20260507133033 43 259 7.0 14.0 0.00 0.00 0.00 50 1015.0
20260507132522 43 265 7.0 16.0 0.00 0.00 0.00 50 1015.0
20260507132015 43 281 9.0 16.0 0.00 0.00 0.00 51 1014.9
20260507131534 42 236 5.0 11.0 0.00 0.00 0.00 53 1015.0
20260507131019 42 250 5.0 11.0 0.00 0.00 0.00 54 1015.0
20260507130516 42 232 5.0 10.0 0.00 0.00 0.00 55 1014.9
20260507130052 41 257 4.0 9.0 0.00 0.00 0.00 56 1015.0
20260507125521 41 256 3.0 7.0 0.00 0.00 0.00 59 1015.0
20260507125015 40 298 3.0 7.0 0.00 0.00 0.00 60 1015.0
20260507124530 40 286 4.0 7.0 0.00 0.00 0.00 62 1015.1
20260507124015 39 240 3.0 9.0 0.00 0.00 0.00 64 1015.0
20260507123515 39 277 4.0 9.0 0.00 0.00 0.00 64 1015.0
20260507123037 39 283 4.0 9.0 0.00 0.00 0.00 64 1014.9
20260507122517 38 261 3.0 7.0 0.00 0.00 0.00 65 1014.8
20260507122016 37 254 3.0 6.0 0.00 0.00 0.00 68 1014.7
20260507121530 37 261 2.0 4.0 0.00 0.00 0.00 68 1014.7
20260507121016 36 273 2.0 4.0 0.00 0.00 0.00 68 1014.7
20260507120515 36 289 2.0 4.0 0.00 0.00 0.00 69 1014.7
20260507120036 36 280 2.0 4.0 0.00 0.00 0.00 69 1014.7
20260507115516 36 347 2.0 6.0 0.00 0.00 0.00 70 1014.8
20260507115016 35 265 2.0 6.0 0.00 0.00 0.00 71 1014.9
20260507114530 34 263 1.0 4.0 0.00 0.00 0.00 72 1014.8
20260507114015 34 259 2.0 3.0 0.00 0.00 0.00 72 1014.9
20260507113517 34 254 2.0 3.0 0.00 0.00 0.00 73 1014.7
20260507113029 33 265 1.0 3.0 0.00 0.00 0.00 74 1014.6
20260507112516 33 271 1.0 2.0 0.00 0.00 0.00 74 1014.5
20260507112016 33 274 0.0 2.0 0.00 0.00 0.00 74 1014.4
20260507111530 32 144 0.0 2.0 0.00 0.00 0.00 75 1014.4
20260507111015 32 173 1.0 2.0 0.00 0.00 0.00 75 1014.3
20260507110516 32 286 1.0 2.0 0.00 0.00 0.00 75 1014.2
20260507110031 32 244 1.0 2.0 0.00 0.00 0.00 74 1014.3
20260507105515 32 0 0.0 2.0 0.00 0.00 0.00 74 1014.3